Location: Beccas
(43.4309°N, 0.1528°E)
Time: 09:32:52
(UTC+00:00)

Cosmos 405 Rocket - Pass Details

Date: 15 October 2021
Orbit: 488 x 551 km, 81.3° (Epoch: 07 December)

Event Time Altitude Azimuth Distance (km) Brightness Sun altitude
Rises 18:47:43 0° 352° (N) 2,665 6.5 -17.4°
Reaches altitude 10° 18:49:52 10° 355° (N) 1,782 5.5 -17.8°
Maximum altitude 18:53:47 70° 79° (ENE) 573 2.6 -18.5°
Enters shadow 18:56:09 23° 159° (SSE) 1,170 4.2 -18.9°
